Location: Chatou
(48.8898°N, 2.1586°E)
Time: 11:52:13
(UTC+00:00)

UNISAT 6 - Visible Passes

Search period start: 08 December 2023 00:00
Search period end: 18 December 2023 00:00
Orbit: 598 x 673 km, 97.7° (Epoch: 07 December)

Date Brightness Start Highest point End Pass type
(mag) Time Alt. Az. Time Alt. Az. Time Alt. Az.
08 Dec ? 16:32:43 10° NNE 16:36:55 41° E 16:41:00 10° SSE visible
08 Dec ? 18:09:34 10° N 18:13:10 25° WNW 18:16:41 10° WSW visible
09 Dec ? 16:54:36 10° NNE 16:59:02 68° ESE 17:03:19 10° S visible
09 Dec ? 18:32:12 10° NNW 18:34:57 16° WNW 18:37:39 10° W visible
10 Dec ? 17:16:38 10° N 17:21:03 73° WNW 17:25:20 10° SSW visible
10 Dec ? 18:55:39 10° NW 18:56:40 11° NW 18:57:40 10° WNW visible
11 Dec ? 17:38:48 10° N 17:43:00 44° WNW 17:47:04 10° SW visible
12 Dec ? 18:01:07 10° N 18:04:52 28° WNW 18:08:32 10° SW visible
13 Dec ? 16:46:18 10° NNE 16:50:37 56° E 16:54:49 10° S visible
13 Dec ? 18:23:37 10° NNW 18:26:39 19° WNW 18:29:38 10° WSW visible
14 Dec ? 17:08:15 10° NNE 17:12:38 87° WNW 17:16:55 10° SSW visible
14 Dec ? 18:46:36 10° NNW 18:48:22 12° NW 18:50:07 10° W visible
15 Dec ? 17:30:21 10° N 17:34:36 53° WNW 17:38:44 10° SSW visible
16 Dec ? 17:52:35 10° N 17:56:28 33° WNW 18:00:16 10° SW visible
17 Dec ? 16:37:55 10° NNE 16:42:06 46° E 16:46:11 10° S visible
17 Dec ? 18:14:58 10° NNW 18:18:16 21° WNW 18:21:29 10° WSW visible
